Погода в Ащебутаке

Россия / Оренбургская область     51°03′04″N   59°06′28″E
темп.,
°C
ветер,
м/с
пор.,
м/с
влажн.,
%
обл.,
%
осадки,
мм/ч
давл.,
гПа
погр.,
м
7 августа, вс
вс723:00+22св4104493 0.0 1018216
02:00+20всв484710 0.0 1017153
05:00+19св48531 0.0 1018135
08:00+22св584539 0.0 1018323
11:00+27св78315 0.0 10182532
14:00+29св772774 0.0 10163116
17:00+27св573315 0.0 10161700
20:00+25св5104350 0.0 1016497
8 августа, пн
пн823:00+21ссв475796 0.0 1016139
02:00+20ссв3563100 0.0 1016104
05:00+19ссв346758 0.0 101670
08:00+21с476096 0.0 1018333
11:00+26ссв674695 0.0 10171490
14:00+24с565426 0.0 1016563
17:00+25всв5648100 0.0 1016809
20:00+24ссв4746100 0.0 1016329
9 августа, вт
вт923:00+21ссв34539 0.0 101644
02:00+19св465558 0.0 101794
05:00+18ссв35585 0.0 101773
08:00+21ссв465226 0.0 1018287
11:00+25св67458 0.0 10171399
14:00+27ссв77305 0.0 10162354
17:00+27св77286 0.0 10162414
20:00+24ссв710411 0.0 1017485
10 августа, ср
ср1023:00+21св47530 0.0 1017138
02:00+19с34600 0.0 101757
05:00+18с45660 0.0 101889
08:00+21ссв45570 0.0 1018289
11:00+27ссв46400 0.0 10181657
14:00+29ссв56315 0.0 10162535
17:00+30с45275 0.0 10152762
20:00+27с343312 0.0 101561
11 августа, чт
чт1123:00+24с33381 0.0 101628
02:00+21с34565 0.0 101650
05:00+20ссз35694 0.0 101680
08:00+23ссз45592 0.0 1017288
11:00+29ссз57375 0.0 10171678
14:00+31с562916 0.0 10162729
17:00+32ссз6725100 0.0 10153290
20:00+27с611415 0.0 1016501